Tracking 33845 objects as of 17-Apr-2026
HD Live streaming from Space Station
objects crossing your sky now

COSMOS 839 DEB

Track COSMOS 839 DEB now!
10-day predictions


NORAD ID: 10410
Int'l Code: 1976-067D
Perigee: 1,003.1 km
Apogee: 2,083.9 km
Inclination: 66.1 °
Period: 116.8 minutes
Semi major axis: 7914 km
RCS: 0.3034 m2 (medium)
Launch date: July 8, 1976
Source: Commonwealth of Independent States (former USSR) (CIS)
Launch site: PLESETSK MISSILE AND SPACE COMPLEX (PKMTR)

Note: This is SATELLITE DEBRIS
Your satellite tracking list
Your tracking list is empty




NASA's NSSDC Master Catalog

Two Line Element Set (TLE):
1 10410U 76067D   26107.11780105 -.00000026  00000-0  10139-3 0  9997
2 10410  66.0929 346.3504 0682782  31.3421 116.2431 12.33014581240666
Source of the keplerian elements: AFSPC